| time (UTC) | temp C | wind direction | speed KPH | gust KPH | rain 1hr cm | rain 24hr cm | rain mn cm | humidity % | barometer mb |
| 20260506020045 | 22 | 130 | 6.4 | 9.7 | 0.00 | 0.00 | 0.00 | 100 | 1018.6 |
| 20260506015933 | 23 | 19 | 0.0 | 6.4 | 0.00 | 0.00 | 0.00 | 100 | 1018.5 |
| 20260506015545 | 23 | 19 | 0.0 | 6.4 | 0.00 | 0.00 | 0.00 | 100 | 1018.5 |
| 20260506015503 | 22 | 26 | 1.6 | 3.2 | 0.00 | 0.00 | 0.00 | 100 | 1018.5 |
| 20260506015045 | 22 | 26 | 1.6 | 3.2 | 0.00 | 0.00 | 0.00 | 100 | 1018.5 |
| 20260506014545 | 23 | 98 | 3.2 | 4.8 | 0.00 | 0.00 | 0.00 | 100 | 1018.4 |
| 20260506014533 | 23 | 109 | 3.2 | 4.8 | 0.00 | 0.00 | 0.00 | 100 | 1018.3 |
| 20260506014045 | 23 | 109 | 3.2 | 4.8 | 0.00 | 0.00 | 0.00 | 100 | 1018.3 |
| 20260506013828 | 23 | 19 | 1.6 | 8.0 | 0.00 | 0.00 | 0.00 | 100 | 1018.3 |
| 20260506013545 | 23 | 19 | 1.6 | 8.0 | 0.00 | 0.00 | 0.00 | 100 | 1018.3 |
| 20260506013504 | 23 | 333 | 4.8 | 12.9 | 0.00 | 0.00 | 0.00 | 100 | 1018.1 |
| 20260506013413 | 23 | 358 | 6.4 | 8.0 | 0.00 | 0.00 | 0.00 | 100 | 1018.3 |
| 20260506013141 | 23 | 358 | 6.4 | 8.0 | 0.00 | 0.00 | 0.00 | 100 | 1018.3 |
| 20260506013045 | 23 | 358 | 6.4 | 8.0 | 0.00 | 0.00 | 0.00 | 100 | 1018.3 |
| 20260506013017 | 23 | 333 | 4.8 | 12.9 | 0.00 | 0.00 | 0.00 | 100 | 1018.1 |
| 20260506012545 | 23 | 333 | 4.8 | 12.9 | 0.00 | 0.00 | 0.00 | 100 | 1018.1 |
| 20260506012045 | 23 | 330 | 8.0 | 9.7 | 0.00 | 0.00 | 0.00 | 100 | 1018.2 |
| 20260506012042 | 23 | 350 | 6.4 | 6.4 | 0.00 | 0.00 | 0.00 | 100 | 1018.1 |
| 20260506011758 | 23 | 358 | 4.8 | 6.4 | 0.00 | 0.00 | 0.00 | 100 | 1018.2 |
| 20260506011551 | 23 | 350 | 6.4 | 6.4 | 0.00 | 0.00 | 0.00 | 100 | 1018.1 |
| 20260506011545 | 23 | 358 | 4.8 | 6.4 | 0.00 | 0.00 | 0.00 | 100 | 1018.2 |
| 20260506011045 | 23 | 350 | 6.4 | 6.4 | 0.00 | 0.00 | 0.00 | 100 | 1018.1 |
| 20260506010800 | 23 | 4 | 0.0 | 0.0 | 0.00 | 0.00 | 0.00 | 100 | 1018.0 |
| 20260506010545 | 23 | 4 | 0.0 | 0.0 | 0.00 | 0.00 | 0.00 | 100 | 1018.0 |
| 20260506010045 | 24 | 4 | 0.0 | 1.6 | 0.00 | 0.00 | 0.00 | 100 | 1018.0 |
| 20260506005900 | 24 | 333 | 0.0 | 3.2 | 0.00 | 0.00 | 0.00 | 100 | 1017.9 |
| 20260506005747 | 24 | 333 | 0.0 | 3.2 | 0.00 | 0.00 | 0.00 | 100 | 1017.9 |
| 20260506005545 | 24 | 333 | 0.0 | 3.2 | 0.00 | 0.00 | 0.00 | 100 | 1017.9 |
| 20260506005530 | 24 | 14 | 0.0 | 3.2 | 0.00 | 0.00 | 0.00 | 100 | 1017.8 |
| 20260506005239 | 25 | 26 | 0.0 | 6.4 | 0.00 | 0.00 | 0.00 | 100 | 1017.6 |
| 20260506005045 | 24 | 14 | 0.0 | 3.2 | 0.00 | 0.00 | 0.00 | 100 | 1017.8 |
| 20260506005032 | 24 | 2 | 0.0 | 0.0 | 0.00 | 0.00 | 0.00 | 100 | 1017.9 |
| 20260506004545 | 24 | 2 | 0.0 | 0.0 | 0.00 | 0.00 | 0.00 | 100 | 1017.9 |
| 20260506004510 | 25 | 2 | 0.0 | 0.0 | 0.00 | 0.00 | 0.00 | 100 | 1017.8 |
| 20260506004045 | 25 | 2 | 0.0 | 0.0 | 0.00 | 0.00 | 0.00 | 100 | 1017.8 |
| 20260506003816 | 25 | 2 | 0.0 | 0.0 | 0.00 | 0.00 | 0.00 | 100 | 1017.7 |
| 20260506003545 | 25 | 2 | 0.0 | 0.0 | 0.00 | 0.00 | 0.00 | 100 | 1017.7 |
| 20260506003045 | 25 | 2 | 0.0 | 3.2 | 0.00 | 0.00 | 0.00 | 100 | 1017.7 |
| 20260506002940 | 25 | 26 | 0.0 | 6.4 | 0.00 | 0.00 | 0.00 | 100 | 1017.6 |
| 20260506002545 | 25 | 26 | 0.0 | 6.4 | 0.00 | 0.00 | 0.00 | 100 | 1017.6 |
| 20260506002404 | 25 | 1 | 0.0 | 1.6 | 0.00 | 0.00 | 0.00 | 100 | 1017.6 |
| 20260506002045 | 25 | 1 | 0.0 | 1.6 | 0.00 | 0.00 | 0.00 | 100 | 1017.6 |
| 20260506001824 | 25 | 315 | 1.6 | 9.7 | 0.00 | 0.00 | 0.00 | 100 | 1017.3 |
| 20260506001545 | 25 | 337 | 0.0 | 6.4 | 0.00 | 0.00 | 0.00 | 100 | 1017.4 |
| 20260506001045 | 25 | 315 | 1.6 | 9.7 | 0.00 | 0.00 | 0.00 | 100 | 1017.3 |
| 20260506000720 | 26 | 7 | 6.4 | 11.3 | 0.00 | 0.00 | 0.00 | 100 | 1017.0 |
| 20260506000545 | 25 | 337 | 4.8 | 8.0 | 0.00 | 0.00 | 0.00 | 100 | 1017.2 |
| 20260506000045 | 26 | 319 | 3.2 | 11.3 | 0.00 | 0.00 | 0.00 | 100 | 1017.0 |
| 20260505235748 | 26 | 336 | 3.2 | 11.3 | 0.00 | 0.00 | 0.00 | 100 | 1017.0 |
| 20260505235545 | 26 | 7 | 6.4 | 11.3 | 0.00 | 0.00 | 0.00 | 100 | 1017.0 |
| 20260505235310 | 26 | 336 | 3.2 | 11.3 | 0.00 | 0.00 | 0.00 | 100 | 1017.0 |
| 20260505235045 | 26 | 336 | 3.2 | 11.3 | 0.00 | 0.00 | 0.00 | 100 | 1017.0 |
| 20260505234923 | 26 | 358 | 4.8 | 11.3 | 0.00 | 0.00 | 0.00 | 100 | 1016.9 |
| 20260505234812 | 26 | 358 | 4.8 | 11.3 | 0.00 | 0.00 | 0.00 | 100 | 1016.9 |
| 20260505234545 | 26 | 358 | 4.8 | 11.3 | 0.00 | 0.00 | 0.00 | 100 | 1016.9 |
| 20260505234529 | 26 | 350 | 6.4 | 14.5 | 0.00 | 0.00 | 0.00 | 100 | 1016.7 |
| 20260505234457 | 26 | 350 | 6.4 | 14.5 | 0.00 | 0.00 | 0.00 | 100 | 1016.7 |
| 20260505234045 | 26 | 350 | 6.4 | 14.5 | 0.00 | 0.00 | 0.00 | 100 | 1016.7 |
| 20260505233952 | 27 | 2 | 0.0 | 11.3 | 0.00 | 0.00 | 0.00 | 100 | 1016.7 |
| 20260505233545 | 27 | 2 | 0.0 | 11.3 | 0.00 | 0.00 | 0.00 | 100 | 1016.7 |
| 20260505233457 | 27 | 1 | 1.6 | 11.3 | 0.00 | 0.00 | 0.00 | 100 | 1016.8 |
| 20260505233329 | 27 | 1 | 1.6 | 11.3 | 0.00 | 0.00 | 0.00 | 100 | 1016.8 |
| 20260505233045 | 27 | 1 | 1.6 | 11.3 | 0.00 | 0.00 | 0.00 | 100 | 1016.8 |
| 20260505233026 | 27 | 7 | 6.4 | 17.7 | 0.00 | 0.00 | 0.00 | 100 | 1016.7 |
| 20260505232838 | 27 | 7 | 6.4 | 17.7 | 0.00 | 0.00 | 0.00 | 100 | 1016.7 |
| 20260505232545 | 27 | 7 | 6.4 | 17.7 | 0.00 | 0.00 | 0.00 | 100 | 1016.7 |
| 20260505232317 | 28 | 337 | 9.7 | 17.7 | 0.00 | 0.00 | 0.00 | 100 | 1016.7 |
| 20260505232045 | 28 | 337 | 9.7 | 17.7 | 0.00 | 0.00 | 0.00 | 100 | 1016.7 |
| 20260505231933 | 28 | 307 | 12.9 | 19.3 | 0.00 | 0.00 | 0.00 | 100 | 1016.6 |
| 20260505231858 | 28 | 307 | 12.9 | 19.3 | 0.00 | 0.00 | 0.00 | 100 | 1016.6 |
| 20260505231545 | 28 | 307 | 12.9 | 19.3 | 0.00 | 0.00 | 0.00 | 100 | 1016.6 |
| 20260505231120 | 28 | 14 | 6.4 | 17.7 | 0.00 | 0.00 | 0.00 | 100 | 1016.6 |
| 20260505231045 | 28 | 14 | 6.4 | 17.7 | 0.00 | 0.00 | 0.00 | 100 | 1016.6 |
| 20260505230817 | 28 | 347 | 8.0 | 14.5 | 0.00 | 0.00 | 0.00 | 100 | 1016.6 |
| 20260505230545 | 28 | 347 | 8.0 | 14.5 | 0.00 | 0.00 | 0.00 | 100 | 1016.6 |
| 20260505230228 | 28 | 284 | 4.8 | 16.1 | 0.00 | 0.00 | 0.00 | 100 | 1016.6 |
| 20260505230045 | 28 | 284 | 4.8 | 16.1 | 0.00 | 0.00 | 0.00 | 100 | 1016.6 |
| 20260505230035 | 28 | 289 | 4.8 | 14.5 | 0.00 | 0.00 | 0.00 | 100 | 1016.6 |
| 20260505225728 | 28 | 289 | 4.8 | 14.5 | 0.00 | 0.00 | 0.00 | 100 | 1016.6 |
| 20260505225545 | 28 | 289 | 4.8 | 14.5 | 0.00 | 0.00 | 0.00 | 100 | 1016.6 |
| 20260505225045 | 28 | 271 | 4.8 | 12.9 | 0.00 | 0.00 | 0.00 | 100 | 1016.5 |
| 20260505224935 | 28 | 264 | 4.8 | 16.1 | 0.00 | 0.00 | 0.00 | 100 | 1016.6 |
| 20260505224546 | 28 | 264 | 4.8 | 16.1 | 0.00 | 0.00 | 0.00 | 100 | 1016.6 |
| 20260505224046 | 28 | 257 | 6.4 | 17.7 | 0.00 | 0.00 | 0.00 | 100 | 1016.5 |
| 20260505224018 | 28 | 286 | 3.2 | 14.5 | 0.00 | 0.00 | 0.00 | 100 | 1016.5 |
| 20260505223546 | 28 | 286 | 3.2 | 14.5 | 0.00 | 0.00 | 0.00 | 100 | 1016.5 |
| 20260505223046 | 28 | 312 | 8.0 | 17.7 | 0.00 | 0.00 | 0.00 | 100 | 1016.5 |
| 20260505222814 | 28 | 293 | 11.3 | 17.7 | 0.00 | 0.00 | 0.00 | 100 | 1016.4 |
| 20260505222546 | 28 | 293 | 11.3 | 17.7 | 0.00 | 0.00 | 0.00 | 100 | 1016.4 |
| 20260505222520 | 28 | 278 | 9.7 | 17.7 | 0.00 | 0.00 | 0.00 | 100 | 1016.3 |
| 20260505222046 | 28 | 278 | 9.7 | 17.7 | 0.00 | 0.00 | 0.00 | 100 | 1016.3 |
| 20260505221810 | 28 | 323 | 4.8 | 20.9 | 0.00 | 0.00 | 0.00 | 100 | 1016.3 |
| 20260505221546 | 28 | 323 | 4.8 | 20.9 | 0.00 | 0.00 | 0.00 | 100 | 1016.3 |
| 20260505221301 | 28 | 284 | 6.4 | 17.7 | 0.00 | 0.00 | 0.00 | 100 | 1016.4 |
| 20260505221046 | 28 | 284 | 6.4 | 17.7 | 0.00 | 0.00 | 0.00 | 100 | 1016.4 |
| 20260505220546 | 29 | 278 | 14.5 | 17.7 | 0.00 | 0.00 | 0.00 | 100 | 1016.4 |
| 20260505220046 | 29 | 289 | 11.3 | 19.3 | 0.00 | 0.00 | 0.00 | 100 | 1016.3 |
| 20260505215812 | 30 | 267 | 9.7 | 17.7 | 0.00 | 0.00 | 0.00 | 100 | 1016.3 |
| 20260505215546 | 30 | 267 | 9.7 | 17.7 | 0.00 | 0.00 | 0.00 | 100 | 1016.3 |
| 20260505215046 | 30 | 300 | 9.7 | 19.3 | 0.00 | 0.00 | 0.00 | 100 | 1016.3 |
| 20260505214744 | 30 | 23 | 3.2 | 11.3 | 0.00 | 0.00 | 0.00 | 100 | 1016.1 |
| 20260505214546 | 30 | 282 | 4.8 | 20.9 | 0.00 | 0.00 | 0.00 | 100 | 1016.2 |
| 20260505214046 | 30 | 264 | 9.7 | 14.5 | 0.00 | 0.00 | 0.00 | 100 | 1016.2 |
| 20260505213642 | 31 | 309 | 9.7 | 16.1 | 0.00 | 0.00 | 0.00 | 100 | 1016.1 |
| 20260505213546 | 31 | 309 | 9.7 | 16.1 | 0.00 | 0.00 | 0.00 | 100 | 1016.1 |
| 20260505213046 | 30 | 23 | 3.2 | 11.3 | 0.00 | 0.00 | 0.00 | 100 | 1016.1 |
| 20260505213002 | 31 | 85 | 4.8 | 8.0 | 0.00 | 0.00 | 0.00 | 100 | 1016.1 |
| 20260505212546 | 30 | 262 | 6.4 | 11.3 | 0.00 | 0.00 | 0.00 | 100 | 1016.0 |
| 20260505212311 | 31 | 310 | 0.0 | 8.0 | 0.00 | 0.00 | 0.00 | 100 | 1016.1 |
| 20260505212046 | 31 | 310 | 0.0 | 8.0 | 0.00 | 0.00 | 0.00 | 100 | 1016.1 |
| 20260505211546 | 31 | 146 | 0.0 | 8.0 | 0.00 | 0.00 | 0.00 | 100 | 1016.1 |
| 20260505211046 | 31 | 85 | 4.8 | 8.0 | 0.00 | 0.00 | 0.00 | 100 | 1016.1 |
| 20260505210921 | 33 | 37 | 0.0 | 0.0 | 0.00 | 0.00 | 0.00 | 100 | 1016.1 |
| 20260505210546 | 33 | 37 | 0.0 | 0.0 | 0.00 | 0.00 | 0.00 | 100 | 1016.1 |
| 20260505210046 | 32 | 37 | 0.0 | 4.8 | 0.00 | 0.00 | 0.00 | 100 | 1016.1 |
| 20260505205952 | 32 | 11 | 0.0 | 8.0 | 0.00 | 0.00 | 0.00 | 100 | 1016.0 |
| 20260505205546 | 32 | 11 | 0.0 | 8.0 | 0.00 | 0.00 | 0.00 | 100 | 1016.0 |
| 20260505205110 | 32 | 165 | 3.2 | 4.8 | 0.00 | 0.00 | 0.00 | 100 | 1016.1 |
| 20260505205046 | 32 | 316 | 3.2 | 4.8 | 0.00 | 0.00 | 0.00 | 100 | 1016.1 |
| 20260505204546 | 31 | 74 | 3.2 | 9.7 | 0.00 | 0.00 | 0.00 | 100 | 1016.1 |
| 20260505204137 | 32 | 165 | 3.2 | 4.8 | 0.00 | 0.00 | 0.00 | 100 | 1016.1 |
| 20260505204046 | 32 | 165 | 3.2 | 4.8 | 0.00 | 0.00 | 0.00 | 100 | 1016.1 |
| 20260505203804 | 32 | 7 | 0.0 | 3.2 | 0.00 | 0.00 | 0.00 | 100 | 1016.2 |
| 20260505203546 | 32 | 7 | 0.0 | 3.2 | 0.00 | 0.00 | 0.00 | 100 | 1016.2 |
| 20260505203217 | 32 | 40 | 0.0 | 3.2 | 0.00 | 0.00 | 0.00 | 100 | 1016.2 |
| 20260505203046 | 32 | 40 | 0.0 | 3.2 | 0.00 | 0.00 | 0.00 | 100 | 1016.2 |
| 20260505202546 | 31 | 43 | 0.0 | 11.3 | 0.00 | 0.00 | 0.00 | 100 | 1016.3 |
| 20260505202204 | 31 | 116 | 6.4 | 9.7 | 0.00 | 0.00 | 0.00 | 100 | 1016.4 |
| 20260505202132 | 31 | 116 | 6.4 | 9.7 | 0.00 | 0.00 | 0.00 | 100 | 1016.4 |
| 20260505202046 | 31 | 116 | 6.4 | 9.7 | 0.00 | 0.00 | 0.00 | 100 | 1016.4 |
| 20260505201640 | 31 | 88 | 6.4 | 9.7 | 0.00 | 0.00 | 0.00 | 100 | 1016.4 |
| 20260505201546 | 31 | 88 | 6.4 | 9.7 | 0.00 | 0.00 | 0.00 | 100 | 1016.4 |
| 20260505201147 | 31 | 99 | 0.0 | 11.3 | 0.00 | 0.00 | 0.00 | 100 | 1016.5 |
| 20260505201046 | 31 | 99 | 0.0 | 11.3 | 0.00 | 0.00 | 0.00 | 100 | 1016.5 |
| 20260505200546 | 31 | 164 | 9.7 | 11.3 | 0.00 | 0.00 | 0.00 | 100 | 1016.5 |
| 20260505200046 | 31 | 82 | 0.0 | 14.5 | 0.00 | 0.00 | 0.00 | 100 | 1016.5 |
| 20260505195959 | 31 | 122 | 6.4 | 12.9 | 0.00 | 0.00 | 0.00 | 100 | 1016.6 |
| 20260505195710 | 31 | 158 | 9.7 | 11.3 | 0.00 | 0.00 | 0.00 | 100 | 1016.5 |
| 20260505195546 | 31 | 158 | 9.7 | 11.3 | 0.00 | 0.00 | 0.00 | 100 | 1016.5 |
| 20260505195207 | 31 | 272 | 0.0 | 12.9 | 0.00 | 0.00 | 0.00 | 100 | 1016.4 |
| 20260505195118 | 31 | 272 | 0.0 | 12.9 | 0.00 | 0.00 | 0.00 | 100 | 1016.4 |
| 20260505195046 | 31 | 272 | 0.0 | 12.9 | 0.00 | 0.00 | 0.00 | 100 | 1016.4 |
| 20260505194546 | 31 | 122 | 6.4 | 12.9 | 0.00 | 0.00 | 0.00 | 100 | 1016.6 |
| 20260505194151 | 31 | 154 | 6.4 | 11.3 | 0.00 | 0.00 | 0.00 | 100 | 1016.6 |
| 20260505194046 | 31 | 154 | 6.4 | 11.3 | 0.00 | 0.00 | 0.00 | 100 | 1016.6 |
| 20260505193651 | 31 | 102 | 3.2 | 9.7 | 0.00 | 0.00 | 0.00 | 100 | 1016.6 |
| 20260505193546 | 31 | 102 | 3.2 | 9.7 | 0.00 | 0.00 | 0.00 | 100 | 1016.6 |
| 20260505193156 | 31 | 46 | 0.0 | 12.9 | 0.00 | 0.00 | 0.00 | 100 | 1016.6 |
| 20260505193136 | 31 | 22 | 8.0 | 14.5 | 0.00 | 0.00 | 0.00 | 100 | 1016.6 |
| 20260505193046 | 31 | 46 | 0.0 | 12.9 | 0.00 | 0.00 | 0.00 | 100 | 1016.6 |
| 20260505192546 | 31 | 22 | 8.0 | 14.5 | 0.00 | 0.00 | 0.00 | 100 | 1016.6 |
| 20260505192506 | 31 | 78 | 0.0 | 12.9 | 0.00 | 0.00 | 0.00 | 100 | 1016.7 |
| 20260505192144 | 31 | 216 | 0.0 | 9.7 | 0.00 | 0.00 | 0.00 | 100 | 1016.6 |
| 20260505192046 | 31 | 216 | 0.0 | 9.7 | 0.00 | 0.00 | 0.00 | 100 | 1016.6 |
| 20260505191642 | 31 | 78 | 0.0 | 12.9 | 0.00 | 0.00 | 0.00 | 100 | 1016.7 |
| 20260505191546 | 31 | 78 | 0.0 | 12.9 | 0.00 | 0.00 | 0.00 | 100 | 1016.7 |
| 20260505191314 | 31 | 74 | 4.8 | 12.9 | 0.00 | 0.00 | 0.00 | 100 | 1016.9 |
| 20260505191202 | 31 | 74 | 4.8 | 12.9 | 0.00 | 0.00 | 0.00 | 100 | 1016.9 |
| 20260505191046 | 31 | 74 | 4.8 | 12.9 | 0.00 | 0.00 | 0.00 | 100 | 1016.9 |
| 20260505190715 | 31 | 227 | 1.6 | 12.9 | 0.00 | 0.00 | 0.00 | 100 | 1016.9 |
| 20260505190546 | 31 | 227 | 1.6 | 12.9 | 0.00 | 0.00 | 0.00 | 100 | 1016.9 |
| 20260505190207 | 31 | 150 | 0.0 | 4.8 | 0.00 | 0.00 | 0.00 | 100 | 1016.9 |
| 20260505190046 | 31 | 150 | 0.0 | 4.8 | 0.00 | 0.00 | 0.00 | 100 | 1016.9 |
| 20260505185819 | 31 | 149 | 4.8 | 14.5 | 0.00 | 0.00 | 0.00 | 100 | 1016.9 |
| 20260505185547 | 31 | 149 | 4.8 | 14.5 | 0.00 | 0.00 | 0.00 | 100 | 1016.9 |
| 20260505185142 | 32 | 336 | 0.0 | 11.3 | 0.00 | 0.00 | 0.00 | 100 | 1016.9 |
| 20260505185047 | 32 | 336 | 0.0 | 11.3 | 0.00 | 0.00 | 0.00 | 100 | 1016.9 |
| 20260505184715 | 30 | 25 | 1.6 | 12.9 | 0.00 | 0.00 | 0.00 | 100 | 1017.0 |
| 20260505184547 | 30 | 25 | 1.6 | 12.9 | 0.00 | 0.00 | 0.00 | 100 | 1017.0 |
| 20260505184047 | 31 | 88 | 6.4 | 12.9 | 0.00 | 0.00 | 0.00 | 100 | 1017.1 |
| 20260505183651 | 31 | 129 | 0.0 | 12.9 | 0.00 | 0.00 | 0.00 | 100 | 1017.1 |
| 20260505183628 | 31 | 104 | 8.0 | 11.3 | 0.00 | 0.00 | 0.00 | 100 | 1017.1 |
| 20260505183547 | 31 | 129 | 0.0 | 12.9 | 0.00 | 0.00 | 0.00 | 100 | 1017.1 |
| 20260505183215 | 31 | 104 | 8.0 | 11.3 | 0.00 | 0.00 | 0.00 | 100 | 1017.1 |
| 20260505183047 | 31 | 104 | 8.0 | 11.3 | 0.00 | 0.00 | 0.00 | 100 | 1017.1 |
| 20260505182717 | 30 | 123 | 6.4 | 14.5 | 0.00 | 0.00 | 0.00 | 100 | 1017.2 |
| 20260505182547 | 30 | 123 | 6.4 | 14.5 | 0.00 | 0.00 | 0.00 | 100 | 1017.2 |
| 20260505182215 | 30 | 91 | 8.0 | 14.5 | 0.00 | 0.00 | 0.00 | 100 | 1017.4 |
| 20260505182047 | 30 | 91 | 8.0 | 14.5 | 0.00 | 0.00 | 0.00 | 100 | 1017.4 |
| 20260505181643 | 30 | 92 | 3.2 | 12.9 | 0.00 | 0.00 | 0.00 | 100 | 1017.5 |
| 20260505181547 | 30 | 92 | 3.2 | 12.9 | 0.00 | 0.00 | 0.00 | 100 | 1017.5 |
| 20260505181239 | 31 | 33 | 0.0 | 8.0 | 0.00 | 0.00 | 0.00 | 100 | 1017.5 |
| 20260505181047 | 31 | 33 | 0.0 | 8.0 | 0.00 | 0.00 | 0.00 | 100 | 1017.5 |
| 20260505180547 | 31 | 165 | 6.4 | 11.3 | 0.00 | 0.00 | 0.00 | 100 | 1017.5 |
| 20260505180317 | 31 | 146 | 8.0 | 14.5 | 0.00 | 0.00 | 0.00 | 100 | 1017.6 |
| 20260505180047 | 31 | 146 | 8.0 | 14.5 | 0.00 | 0.00 | 0.00 | 100 | 1017.6 |
| 20260505175547 | 31 | 32 | 1.6 | 9.7 | 0.00 | 0.00 | 0.00 | 100 | 1017.7 |
| 20260505175202 | 30 | 99 | 9.7 | 16.1 | 0.00 | 0.00 | 0.00 | 100 | 1017.7 |
| 20260505175047 | 30 | 99 | 9.7 | 16.1 | 0.00 | 0.00 | 0.00 | 100 | 1017.7 |
| 20260505174811 | 30 | 61 | 3.2 | 14.5 | 0.00 | 0.00 | 0.00 | 100 | 1017.6 |
| 20260505174547 | 30 | 61 | 3.2 | 14.5 | 0.00 | 0.00 | 0.00 | 100 | 1017.6 |
| 20260505174321 | 30 | 136 | 9.7 | 12.9 | 0.00 | 0.00 | 0.00 | 100 | 1017.8 |
| 20260505174047 | 30 | 136 | 9.7 | 12.9 | 0.00 | 0.00 | 0.00 | 100 | 1017.8 |
| 20260505173547 | 30 | 98 | 4.8 | 12.9 | 0.00 | 0.00 | 0.00 | 100 | 1017.9 |
| 20260505173217 | 30 | 161 | 8.0 | 12.9 | 0.00 | 0.00 | 0.00 | 100 | 1017.9 |
| 20260505173047 | 30 | 161 | 8.0 | 12.9 | 0.00 | 0.00 | 0.00 | 100 | 1017.9 |
| 20260505172547 | 31 | 95 | 6.4 | 12.9 | 0.00 | 0.00 | 0.00 | 100 | 1018.0 |
| 20260505172147 | 29 | 175 | 1.6 | 8.0 | 0.00 | 0.00 | 0.00 | 100 | 1018.0 |
| 20260505172047 | 29 | 175 | 1.6 | 8.0 | 0.00 | 0.00 | 0.00 | 100 | 1018.0 |
| 20260505171643 | 30 | 42 | 0.0 | 8.0 | 0.00 | 0.00 | 0.00 | 100 | 1018.1 |
| 20260505171547 | 30 | 42 | 0.0 | 8.0 | 0.00 | 0.00 | 0.00 | 100 | 1018.1 |
| 20260505171203 | 28 | 85 | 3.2 | 9.7 | 0.00 | 0.00 | 0.00 | 100 | 1018.2 |
| 20260505171047 | 28 | 85 | 3.2 | 9.7 | 0.00 | 0.00 | 0.00 | 100 | 1018.2 |
| 20260505170547 | 28 | 84 | 4.8 | 12.9 | 0.00 | 0.00 | 0.00 | 100 | 1018.2 |
| 20260505170047 | 28 | 74 | 6.4 | 12.9 | 0.00 | 0.00 | 0.00 | 100 | 1018.2 |
| 20260505165754 | 28 | 59 | 6.4 | 12.9 | 0.00 | 0.00 | 0.00 | 100 | 1018.1 |
| 20260505165547 | 28 | 59 | 6.4 | 12.9 | 0.00 | 0.00 | 0.00 | 100 | 1018.1 |
| 20260505165047 | 28 | 90 | 6.4 | 11.3 | 0.00 | 0.00 | 0.00 | 100 | 1018.2 |
| 20260505164713 | 28 | 111 | 3.2 | 12.9 | 0.00 | 0.00 | 0.00 | 100 | 1018.2 |
| 20260505164547 | 28 | 111 | 3.2 | 12.9 | 0.00 | 0.00 | 0.00 | 100 | 1018.2 |
| 20260505164208 | 29 | 123 | 1.6 | 17.7 | 0.00 | 0.00 | 0.00 | 100 | 1018.3 |
| 20260505164047 | 29 | 123 | 1.6 | 17.7 | 0.00 | 0.00 | 0.00 | 100 | 1018.3 |
| 20260505163810 | 28 | 142 | 11.3 | 11.3 | 0.00 | 0.00 | 0.00 | 100 | 1018.3 |
| 20260505163547 | 28 | 142 | 11.3 | 11.3 | 0.00 | 0.00 | 0.00 | 100 | 1018.3 |
| 20260505163332 | 29 | 187 | 3.2 | 17.7 | 0.00 | 0.00 | 0.00 | 100 | 1018.3 |
| 20260505163047 | 29 | 187 | 3.2 | 17.7 | 0.00 | 0.00 | 0.00 | 100 | 1018.3 |
| 20260505162657 | 28 | 81 | 16.1 | 17.7 | 0.00 | 0.00 | 0.00 | 100 | 1018.3 |
| 20260505162547 | 28 | 81 | 16.1 | 17.7 | 0.00 | 0.00 | 0.00 | 100 | 1018.3 |
| 20260505162047 | 30 | 80 | 6.4 | 11.3 | 0.00 | 0.00 | 0.00 | 100 | 1018.2 |
| 20260505161711 | 29 | 80 | 11.3 | 14.5 | 0.00 | 0.00 | 0.00 | 100 | 1018.2 |
| 20260505161547 | 29 | 80 | 11.3 | 14.5 | 0.00 | 0.00 | 0.00 | 100 | 1018.2 |
| 20260505161047 | 28 | 153 | 6.4 | 16.1 | 0.00 | 0.00 | 0.00 | 100 | 1018.3 |
| 20260505160657 | 27 | 112 | 0.0 | 17.7 | 0.00 | 0.00 | 0.00 | 100 | 1018.4 |
| 20260505160547 | 27 | 112 | 0.0 | 17.7 | 0.00 | 0.00 | 0.00 | 100 | 1018.4 |
| 20260505160257 | 28 | 87 | 11.3 | 17.7 | 0.00 | 0.00 | 0.00 | 100 | 1018.4 |
| 20260505153135 | 26 | 112 | 8.0 | 16.1 | 0.00 | 0.00 | 0.00 | 100 | 1018.6 |
| 20260505153047 | 26 | 112 | 8.0 | 16.1 | 0.00 | 0.00 | 0.00 | 100 | 1018.6 |
| 20260505152654 | 26 | 111 | 9.7 | 12.9 | 0.00 | 0.00 | 0.00 | 100 | 1018.7 |
| 20260505152547 | 26 | 111 | 9.7 | 12.9 | 0.00 | 0.00 | 0.00 | 100 | 1018.7 |
| 20260505152047 | 27 | 164 | 6.4 | 16.1 | 0.00 | 0.00 | 0.00 | 100 | 1018.6 |
| 20260505151712 | 27 | 150 | 11.3 | 17.7 | 0.00 | 0.00 | 0.00 | 100 | 1018.6 |
| 20260505151547 | 27 | 150 | 11.3 | 17.7 | 0.00 | 0.00 | 0.00 | 100 | 1018.6 |
| 20260505151238 | 27 | 90 | 9.7 | 19.3 | 0.00 | 0.00 | 0.00 | 100 | 1018.7 |
| 20260505151047 | 27 | 90 | 9.7 | 19.3 | 0.00 | 0.00 | 0.00 | 100 | 1018.7 |
| 20260505150654 | 28 | 82 | 9.7 | 17.7 | 0.00 | 0.00 | 0.00 | 100 | 1018.7 |
| 20260505150547 | 28 | 82 | 9.7 | 17.7 | 0.00 | 0.00 | 0.00 | 100 | 1018.7 |
| 20260505150310 | 27 | 81 | 9.7 | 20.9 | 0.00 | 0.00 | 0.00 | 100 | 1018.7 |
| 20260505140548 | 26 | 135 | 16.1 | 19.3 | 0.00 | 0.00 | 0.00 | 100 | 1018.1 |
| 20260505124832 | 23 | 120 | 6.4 | 14.5 | 0.00 | 0.00 | 0.00 | 100 | 1017.9 |
| 20260505124548 | 23 | 120 | 6.4 | 14.5 | 0.00 | 0.00 | 0.00 | 100 | 1017.9 |
| 20260505124048 | 23 | 81 | 4.8 | 12.9 | 0.00 | 0.00 | 0.00 | 100 | 1017.9 |
| 20260505123834 | 23 | 80 | 6.4 | 12.9 | 0.00 | 0.00 | 0.00 | 100 | 1017.9 |
| 20260505123634 | 22 | 91 | 6.4 | 11.3 | 0.00 | 0.00 | 0.00 | 100 | 1017.9 |
| 20260505123548 | 23 | 80 | 6.4 | 12.9 | 0.00 | 0.00 | 0.00 | 100 | 1017.9 |
| 20260505123513 | 22 | 91 | 6.4 | 11.3 | 0.00 | 0.00 | 0.00 | 100 | 1017.9 |
| 20260505123048 | 22 | 91 | 6.4 | 11.3 | 0.00 | 0.00 | 0.00 | 100 | 1017.9 |
| 20260505123022 | 22 | 94 | 9.7 | 11.3 | 0.00 | 0.00 | 0.00 | 100 | 1018.0 |
| 20260505122548 | 22 | 94 | 9.7 | 11.3 | 0.00 | 0.00 | 0.00 | 100 | 1018.0 |
| 20260505122048 | 22 | 149 | 9.7 | 12.9 | 0.00 | 0.00 | 0.00 | 100 | 1017.9 |
| 20260505121738 | 21 | 144 | 3.2 | 11.3 | 0.00 | 0.00 | 0.00 | 100 | 1017.7 |
| 20260505121548 | 22 | 118 | 4.8 | 9.7 | 0.00 | 0.00 | 0.00 | 100 | 1017.9 |
| 20260505121048 | 22 | 87 | 4.8 | 8.0 | 0.00 | 0.00 | 0.00 | 100 | 1017.9 |
| 20260505120617 | 21 | 144 | 3.2 | 11.3 | 0.00 | 0.00 | 0.00 | 100 | 1017.7 |
| 20260505120548 | 21 | 106 | 4.8 | 9.7 | 0.00 | 0.00 | 0.00 | 100 | 1017.8 |
| 20260505120048 | 21 | 144 | 3.2 | 11.3 | 0.00 | 0.00 | 0.00 | 100 | 1017.7 |
| 20260505115548 | 21 | 91 | 8.0 | 11.3 | 0.00 | 0.00 | 0.00 | 100 | 1017.7 |
| 20260505115048 | 21 | 109 | 4.8 | 9.7 | 0.00 | 0.00 | 0.00 | 100 | 1017.6 |
| 20260505114548 | 20 | 67 | 3.2 | 9.7 | 0.00 | 0.00 | 0.00 | 100 | 1017.5 |
| 20260505114229 | 20 | 71 | 4.8 | 8.0 | 0.00 | 0.00 | 0.00 | 100 | 1017.4 |
| 20260505114048 | 20 | 71 | 4.8 | 8.0 | 0.00 | 0.00 | 0.00 | 100 | 1017.4 |
| 20260505113548 | 20 | 97 | 1.6 | 6.4 | 0.00 | 0.00 | 0.00 | 100 | 1017.2 |
| 20260505113412 | 19 | 66 | 0.0 | 0.0 | 0.00 | 0.00 | 0.00 | 100 | 1017.1 |
| 20260505113136 | 18 | 66 | 0.0 | 0.0 | 0.00 | 0.00 | 0.00 | 100 | 1017.2 |
| 20260505113048 | 19 | 66 | 0.0 | 0.0 | 0.00 | 0.00 | 0.00 | 100 | 1017.1 |
| 20260505113040 | 18 | 85 | 0.0 | 4.8 | 0.00 | 0.00 | 0.00 | 100 | 1017.0 |
| 20260505112548 | 18 | 66 | 0.0 | 0.0 | 0.00 | 0.00 | 0.00 | 100 | 1017.2 |
| 20260505112059 | 18 | 75 | 0.0 | 6.4 | 0.00 | 0.00 | 0.00 | 100 | 1017.1 |
| 20260505112048 | 18 | 85 | 0.0 | 4.8 | 0.00 | 0.00 | 0.00 | 100 | 1017.0 |
| 20260505111852 | 18 | 75 | 0.0 | 6.4 | 0.00 | 0.00 | 0.00 | 100 | 1017.1 |
| 20260505111548 | 18 | 75 | 0.0 | 6.4 | 0.00 | 0.00 | 0.00 | 100 | 1017.1 |
| 20260505111048 | 18 | 88 | 3.2 | 8.0 | 0.00 | 0.00 | 0.00 | 100 | 1016.9 |
| 20260505110548 | 18 | 57 | 4.8 | 8.0 | 0.00 | 0.00 | 0.00 | 100 | 1017.0 |
| 20260505102215 | 17 | 47 | 0.0 | 4.8 | 0.00 | 0.00 | 0.00 | 100 | 1016.8 |
| 20260505102049 | 17 | 47 | 0.0 | 4.8 | 0.00 | 0.00 | 0.00 | 100 | 1016.8 |
| 20260505101828 | 17 | 70 | 0.0 | 0.0 | 0.00 | 0.00 | 0.00 | 100 | 1016.6 |
| 20260505101549 | 17 | 67 | 1.6 | 4.8 | 0.00 | 0.00 | 0.00 | 100 | 1016.7 |
| 20260505101049 | 17 | 70 | 0.0 | 0.0 | 0.00 | 0.00 | 0.00 | 100 | 1016.6 |
| 20260505101027 | 17 | 70 | 0.0 | 0.0 | 0.00 | 0.00 | 0.00 | 100 | 1016.5 |
| 20260505100821 | 17 | 70 | 0.0 | 0.0 | 0.00 | 0.00 | 0.00 | 100 | 1016.7 |
| 20260505100549 | 17 | 70 | 0.0 | 0.0 | 0.00 | 0.00 | 0.00 | 100 | 1016.7 |
| 20260505100049 | 17 | 70 | 0.0 | 0.0 | 0.00 | 0.00 | 0.00 | 100 | 1016.6 |
| 20260505095549 | 17 | 70 | 0.0 | 0.0 | 0.00 | 0.00 | 0.00 | 100 | 1016.5 |
| 20260505095455 | 17 | 70 | 0.0 | 0.0 | 0.00 | 0.00 | 0.00 | 100 | 1016.5 |
| 20260505095054 | 17 | 33 | 0.0 | 4.8 | 0.00 | 0.00 | 0.00 | 100 | 1016.5 |
| 20260505095049 | 17 | 70 | 0.0 | 0.0 | 0.00 | 0.00 | 0.00 | 100 | 1016.5 |
| 20260505094549 | 17 | 33 | 0.0 | 4.8 | 0.00 | 0.00 | 0.00 | 100 | 1016.5 |
| 20260505094049 | 17 | 68 | 3.2 | 4.8 | 0.00 | 0.00 | 0.00 | 100 | 1016.5 |
| 20260505093549 | 17 | 53 | 0.0 | 4.8 | 0.00 | 0.00 | 0.00 | 100 | 1016.4 |
| 20260505093255 | 17 | 95 | 1.6 | 3.2 | 0.00 | 0.00 | 0.00 | 100 | 1016.4 |
| 20260505093049 | 17 | 95 | 1.6 | 3.2 | 0.00 | 0.00 | 0.00 | 100 | 1016.4 |
| 20260505092549 | 17 | 95 | 1.6 | 3.2 | 0.00 | 0.00 | 0.00 | 100 | 1016.4 |
| 20260505092049 | 17 | 73 | 0.0 | 4.8 | 0.00 | 0.00 | 0.00 | 100 | 1016.4 |
| 20260505091549 | 17 | 59 | 0.0 | 4.8 | 0.00 | 0.00 | 0.00 | 100 | 1016.3 |
| 20260505091335 | 17 | 59 | 1.6 | 4.8 | 0.00 | 0.00 | 0.00 | 100 | 1016.2 |
| 20260505091049 | 17 | 59 | 1.6 | 4.8 | 0.00 | 0.00 | 0.00 | 100 | 1016.2 |
| 20260505090549 | 17 | 94 | 1.6 | 3.2 | 0.00 | 0.00 | 0.00 | 100 | 1016.2 |
| 20260505090509 | 17 | 111 | 1.6 | 4.8 | 0.00 | 0.00 | 0.00 | 100 | 1016.3 |
| 20260505090049 | 17 | 111 | 1.6 | 4.8 | 0.00 | 0.00 | 0.00 | 100 | 1016.3 |
| 20260505090010 | 17 | 46 | 0.0 | 3.2 | 0.00 | 0.00 | 0.00 | 100 | 1016.3 |
| 20260505085935 | 17 | 46 | 0.0 | 3.2 | 0.00 | 0.00 | 0.00 | 100 | 1016.3 |
| 20260505085549 | 17 | 46 | 0.0 | 3.2 | 0.00 | 0.00 | 0.00 | 100 | 1016.3 |
| 20260505085509 | 17 | 99 | 1.6 | 4.8 | 0.00 | 0.00 | 0.00 | 100 | 1016.2 |
| 20260505085059 | 18 | 81 | 0.0 | 1.6 | 0.00 | 0.00 | 0.00 | 100 | 1016.3 |
| 20260505085049 | 17 | 99 | 1.6 | 4.8 | 0.00 | 0.00 | 0.00 | 100 | 1016.2 |
| 20260505084802 | 18 | 81 | 0.0 | 1.6 | 0.00 | 0.00 | 0.00 | 100 | 1016.3 |
| 20260505084549 | 18 | 81 | 0.0 | 1.6 | 0.00 | 0.00 | 0.00 | 100 | 1016.3 |
| 20260505084513 | 18 | 64 | 0.0 | 1.6 | 0.00 | 0.00 | 0.00 | 100 | 1016.4 |
| 20260505084049 | 18 | 64 | 0.0 | 1.6 | 0.00 | 0.00 | 0.00 | 100 | 1016.4 |
| 20260505083549 | 18 | 40 | 0.0 | 1.6 | 0.00 | 0.00 | 0.00 | 100 | 1016.4 |
| 20260505083435 | 18 | 74 | 0.0 | 4.8 | 0.00 | 0.00 | 0.00 | 100 | 1016.2 |
| 20260505083202 | 18 | 87 | 3.2 | 6.4 | 0.00 | 0.00 | 0.00 | 100 | 1016.2 |
| 20260505083049 | 18 | 74 | 0.0 | 4.8 | 0.00 | 0.00 | 0.00 | 100 | 1016.2 |
| 20260505082549 | 18 | 81 | 3.2 | 4.8 | 0.00 | 0.00 | 0.00 | 100 | 1016.2 |
| 20260505082505 | 18 | 87 | 3.2 | 6.4 | 0.00 | 0.00 | 0.00 | 100 | 1016.2 |
| 20260505082049 | 18 | 87 | 3.2 | 6.4 | 0.00 | 0.00 | 0.00 | 100 | 1016.2 |
| 20260505081549 | 18 | 64 | 3.2 | 6.4 | 0.00 | 0.00 | 0.00 | 100 | 1016.2 |
| 20260505081323 | 18 | 97 | 1.6 | 4.8 | 0.00 | 0.00 | 0.00 | 100 | 1016.1 |
| 20260505081049 | 18 | 97 | 1.6 | 4.8 | 0.00 | 0.00 | 0.00 | 100 | 1016.1 |
| 20260505081006 | 18 | 112 | 4.8 | 4.8 | 0.00 | 0.00 | 0.00 | 100 | 1016.2 |
| 20260505080549 | 18 | 112 | 4.8 | 4.8 | 0.00 | 0.00 | 0.00 | 100 | 1016.2 |
| 20260505080515 | 18 | 104 | 1.6 | 3.2 | 0.00 | 0.00 | 0.00 | 100 | 1016.3 |
| 20260505080049 | 18 | 104 | 1.6 | 3.2 | 0.00 | 0.00 | 0.00 | 100 | 1016.3 |
| 20260505075549 | 18 | 73 | 0.0 | 1.6 | 0.00 | 0.00 | 0.00 | 100 | 1016.4 |
| 20260505075059 | 18 | 63 | 0.0 | 0.0 | 0.00 | 0.00 | 0.00 | 100 | 1016.6 |
| 20260505075049 | 18 | 63 | 0.0 | 0.0 | 0.00 | 0.00 | 0.00 | 100 | 1016.5 |
| 20260505074549 | 18 | 63 | 0.0 | 0.0 | 0.00 | 0.00 | 0.00 | 100 | 1016.6 |
| 20260505074156 | 18 | 45 | 0.0 | 3.2 | 0.00 | 0.00 | 0.00 | 100 | 1016.6 |
| 20260505074049 | 18 | 45 | 0.0 | 3.2 | 0.00 | 0.00 | 0.00 | 100 | 1016.6 |
| 20260505074019 | 18 | 57 | 0.0 | 1.6 | 0.00 | 0.00 | 0.00 | 100 | 1016.4 |
| 20260505073631 | 18 | 53 | 0.0 | 4.8 | 0.00 | 0.00 | 0.00 | 100 | 1016.6 |
| 20260505073555 | 18 | 53 | 0.0 | 4.8 | 0.00 | 0.00 | 0.00 | 100 | 1016.6 |
| 20260505073549 | 18 | 57 | 0.0 | 1.6 | 0.00 | 0.00 | 0.00 | 100 | 1016.4 |
| 20260505073519 | 18 | 53 | 0.0 | 4.8 | 0.00 | 0.00 | 0.00 | 100 | 1016.6 |
| 20260505073049 | 18 | 53 | 0.0 | 4.8 | 0.00 | 0.00 | 0.00 | 100 | 1016.6 |
| 20260505073014 | 18 | 73 | 1.6 | 3.2 | 0.00 | 0.00 | 0.00 | 100 | 1016.6 |
| 20260505072914 | 18 | 73 | 1.6 | 3.2 | 0.00 | 0.00 | 0.00 | 100 | 1016.6 |
| 20260505072549 | 18 | 73 | 1.6 | 3.2 | 0.00 | 0.00 | 0.00 | 100 | 1016.6 |
| 20260505072516 | 18 | 84 | 1.6 | 4.8 | 0.00 | 0.00 | 0.00 | 100 | 1016.5 |
| 20260505072155 | 18 | 60 | 0.0 | 8.0 | 0.00 | 0.00 | 0.00 | 100 | 1016.4 |
| 20260505072049 | 18 | 84 | 1.6 | 4.8 | 0.00 | 0.00 | 0.00 | 100 | 1016.5 |
| 20260505071549 | 18 | 68 | 0.0 | 6.4 | 0.00 | 0.00 | 0.00 | 100 | 1016.5 |
| 20260505071454 | 18 | 60 | 0.0 | 8.0 | 0.00 | 0.00 | 0.00 | 100 | 1016.4 |
| 20260505071049 | 18 | 60 | 0.0 | 8.0 | 0.00 | 0.00 | 0.00 | 100 | 1016.4 |
| 20260505070839 | 19 | 50 | 3.2 | 4.8 | 0.00 | 0.00 | 0.00 | 100 | 1016.4 |
| 20260505070549 | 19 | 50 | 3.2 | 4.8 | 0.00 | 0.00 | 0.00 | 100 | 1016.4 |
| 20260505070532 | 19 | 112 | 1.6 | 6.4 | 0.00 | 0.00 | 0.00 | 100 | 1016.6 |
| 20260505070050 | 19 | 112 | 1.6 | 6.4 | 0.00 | 0.00 | 0.00 | 100 | 1016.6 |
| 20260505065550 | 19 | 84 | 1.6 | 8.0 | 0.00 | 0.00 | 0.00 | 100 | 1016.8 |
| 20260505065521 | 19 | 81 | 4.8 | 6.4 | 0.00 | 0.00 | 0.00 | 100 | 1016.6 |
| 20260505065050 | 19 | 81 | 4.8 | 6.4 | 0.00 | 0.00 | 0.00 | 100 | 1016.6 |
| 20260505064550 | 19 | 81 | 3.2 | 6.4 | 0.00 | 0.00 | 0.00 | 100 | 1016.7 |
| 20260505064208 | 19 | 70 | 3.2 | 6.4 | 0.00 | 0.00 | 0.00 | 100 | 1016.8 |
| 20260505064050 | 19 | 70 | 3.2 | 6.4 | 0.00 | 0.00 | 0.00 | 100 | 1016.8 |
| 20260505063937 | 19 | 52 | 0.0 | 4.8 | 0.00 | 0.00 | 0.00 | 100 | 1016.9 |
| 20260505063550 | 19 | 52 | 0.0 | 4.8 | 0.00 | 0.00 | 0.00 | 100 | 1016.9 |
| 20260505063455 | 19 | 71 | 3.2 | 8.0 | 0.00 | 0.00 | 0.00 | 100 | 1017.0 |
| 20260505063349 | 19 | 71 | 3.2 | 8.0 | 0.00 | 0.00 | 0.00 | 100 | 1017.0 |
| 20260505063050 | 19 | 71 | 3.2 | 8.0 | 0.00 | 0.00 | 0.00 | 100 | 1017.0 |
| 20260505063015 | 20 | 90 | 1.6 | 6.4 | 0.00 | 0.00 | 0.00 | 100 | 1017.2 |
| 20260505062634 | 20 | 104 | 3.2 | 6.4 | 0.00 | 0.00 | 0.00 | 100 | 1017.5 |
| 20260505062550 | 20 | 90 | 1.6 | 6.4 | 0.00 | 0.00 | 0.00 | 100 | 1017.2 |
| 20260505062112 | 20 | 71 | 4.8 | 6.4 | 0.00 | 0.00 | 0.00 | 100 | 1017.4 |
| 20260505062050 | 20 | 104 | 3.2 | 6.4 | 0.00 | 0.00 | 0.00 | 100 | 1017.5 |
| 20260505062007 | 20 | 45 | 3.2 | 4.8 | 0.00 | 0.00 | 0.00 | 100 | 1017.3 |
| 20260505061550 | 20 | 45 | 3.2 | 4.8 | 0.00 | 0.00 | 0.00 | 100 | 1017.3 |
| 20260505061345 | 20 | 80 | 3.2 | 8.0 | 0.00 | 0.00 | 0.00 | 100 | 1017.4 |
| 20260505061050 | 20 | 80 | 3.2 | 8.0 | 0.00 | 0.00 | 0.00 | 100 | 1017.4 |
| 20260505060607 | 20 | 63 | 1.6 | 6.4 | 0.00 | 0.00 | 0.00 | 100 | 1017.4 |
| 20260505060550 | 20 | 88 | 1.6 | 4.8 | 0.00 | 0.00 | 0.00 | 100 | 1017.5 |
| 20260505060050 | 20 | 63 | 1.6 | 6.4 | 0.00 | 0.00 | 0.00 | 100 | 1017.4 |
| 20260505055550 | 20 | 71 | 4.8 | 6.4 | 0.00 | 0.00 | 0.00 | 100 | 1017.4 |
| 20260505055459 | 20 | 47 | 1.6 | 9.7 | 0.00 | 0.00 | 0.00 | 100 | 1017.3 |
| 20260505055050 | 20 | 47 | 1.6 | 9.7 | 0.00 | 0.00 | 0.00 | 100 | 1017.3 |
| 20260505054550 | 20 | 67 | 3.2 | 6.4 | 0.00 | 0.00 | 0.00 | 100 | 1017.5 |
| 20260505054050 | 20 | 28 | 0.0 | 8.0 | 0.00 | 0.00 | 0.00 | 100 | 1017.5 |
| 20260505053550 | 20 | 80 | 1.6 | 4.8 | 0.00 | 0.00 | 0.00 | 100 | 1017.8 |
| 20260505053135 | 20 | 112 | 1.6 | 6.4 | 0.00 | 0.00 | 0.00 | 100 | 1017.7 |
| 20260505053050 | 20 | 88 | 0.0 | 4.8 | 0.00 | 0.00 | 0.00 | 100 | 1017.7 |
| 20260505052550 | 20 | 112 | 1.6 | 6.4 | 0.00 | 0.00 | 0.00 | 100 | 1017.7 |
| 20260505052312 | 19 | 47 | 1.6 | 3.2 | 0.00 | 0.00 | 0.00 | 100 | 1017.8 |
| 20260505052050 | 20 | 40 | 0.0 | 4.8 | 0.00 | 0.00 | 0.00 | 100 | 1017.8 |
| 20260505051550 | 19 | 47 | 1.6 | 3.2 | 0.00 | 0.00 | 0.00 | 100 | 1017.8 |
| 20260505051506 | 19 | 1 | 0.0 | 4.8 | 0.00 | 0.00 | 0.00 | 100 | 1017.7 |
| 20260505051050 | 19 | 1 | 0.0 | 4.8 | 0.00 | 0.00 | 0.00 | 100 | 1017.7 |
| 20260505050704 | 19 | 64 | 3.2 | 6.4 | 0.00 | 0.00 | 0.00 | 100 | 1017.7 |
| 20260505050550 | 19 | 64 | 3.2 | 6.4 | 0.00 | 0.00 | 0.00 | 100 | 1017.7 |
| 20260505050439 | 19 | 71 | 4.8 | 4.8 | 0.00 | 0.00 | 0.00 | 100 | 1017.9 |
| 20260505041724 | 20 | 111 | 4.8 | 4.8 | 0.00 | 0.00 | 0.00 | 100 | 1017.9 |
| 20260505041550 | 20 | 85 | 0.0 | 4.8 | 0.00 | 0.00 | 0.00 | 100 | 1018.0 |
| 20260505041050 | 20 | 111 | 4.8 | 4.8 | 0.00 | 0.00 | 0.00 | 100 | 1017.9 |
| 20260505041038 | 20 | 81 | 1.6 | 3.2 | 0.00 | 0.00 | 0.00 | 100 | 1018.1 |
| 20260505040550 | 20 | 81 | 1.6 | 3.2 | 0.00 | 0.00 | 0.00 | 100 | 1018.1 |
| 20260505040050 | 20 | 87 | 1.6 | 4.8 | 0.00 | 0.00 | 0.00 | 100 | 1018.0 |
| 20260505035956 | 20 | 59 | 1.6 | 4.8 | 0.00 | 0.00 | 0.00 | 100 | 1018.0 |
| 20260505035708 | 20 | 59 | 1.6 | 4.8 | 0.00 | 0.00 | 0.00 | 100 | 1018.0 |
| 20260505035550 | 20 | 59 | 1.6 | 4.8 | 0.00 | 0.00 | 0.00 | 100 | 1018.0 |
| 20260505035050 | 20 | 102 | 1.6 | 4.8 | 0.00 | 0.00 | 0.00 | 100 | 1018.0 |
| 20260505034734 | 20 | 81 | 3.2 | 6.4 | 0.00 | 0.00 | 0.00 | 100 | 1018.1 |
| 20260505034550 | 20 | 81 | 3.2 | 6.4 | 0.00 | 0.00 | 0.00 | 100 | 1018.1 |
| 20260505034307 | 20 | 104 | 4.8 | 6.4 | 0.00 | 0.00 | 0.00 | 100 | 1018.2 |
| 20260505034050 | 20 | 75 | 3.2 | 4.8 | 0.00 | 0.00 | 0.00 | 100 | 1018.2 |
| 20260505033634 | 20 | 82 | 4.8 | 6.4 | 0.00 | 0.00 | 0.00 | 100 | 1018.2 |
| 20260505033550 | 20 | 104 | 4.8 | 6.4 | 0.00 | 0.00 | 0.00 | 100 | 1018.2 |
| 20260505033504 | 20 | 81 | 1.6 | 6.4 | 0.00 | 0.00 | 0.00 | 100 | 1018.2 |
| 20260505033050 | 20 | 82 | 4.8 | 6.4 | 0.00 | 0.00 | 0.00 | 100 | 1018.2 |
| 20260505033015 | 20 | 81 | 1.6 | 6.4 | 0.00 | 0.00 | 0.00 | 100 | 1018.2 |
| 20260505032550 | 20 | 81 | 1.6 | 6.4 | 0.00 | 0.00 | 0.00 | 100 | 1018.2 |
| 20260505032305 | 21 | 78 | 1.6 | 4.8 | 0.00 | 0.00 | 0.00 | 100 | 1018.2 |
| 20260505032050 | 21 | 78 | 1.6 | 4.8 | 0.00 | 0.00 | 0.00 | 100 | 1018.2 |
| 20260505031737 | 21 | 43 | 3.2 | 4.8 | 0.00 | 0.00 | 0.00 | 100 | 1018.4 |
| 20260505031550 | 21 | 91 | 3.2 | 4.8 | 0.00 | 0.00 | 0.00 | 100 | 1018.2 |
| 20260505031458 | 21 | 43 | 3.2 | 4.8 | 0.00 | 0.00 | 0.00 | 100 | 1018.4 |
| 20260505031050 | 21 | 43 | 3.2 | 4.8 | 0.00 | 0.00 | 0.00 | 100 | 1018.4 |
| 20260505030841 | 21 | 126 | 3.2 | 8.0 | 0.00 | 0.00 | 0.00 | 100 | 1018.3 |
| 20260505030708 | 21 | 101 | 3.2 | 9.7 | 0.00 | 0.00 | 0.00 | 100 | 1018.3 |
| 20260505030550 | 21 | 81 | 0.0 | 6.4 | 0.00 | 0.00 | 0.00 | 100 | 1018.4 |
| 20260505030050 | 21 | 126 | 3.2 | 8.0 | 0.00 | 0.00 | 0.00 | 100 | 1018.3 |
| 20260505025551 | 21 | 95 | 4.8 | 8.0 | 0.00 | 0.00 | 0.00 | 100 | 1018.3 |
| 20260505025051 | 21 | 101 | 3.2 | 9.7 | 0.00 | 0.00 | 0.00 | 100 | 1018.3 |
| 20260505024551 | 21 | 60 | 6.4 | 12.9 | 0.00 | 0.00 | 0.00 | 100 | 1018.1 |
| 20260505024227 | 21 | 130 | 4.8 | 12.9 | 0.00 | 0.00 | 0.00 | 100 | 1018.0 |
| 20260505024051 | 21 | 130 | 4.8 | 12.9 | 0.00 | 0.00 | 0.00 | 100 | 1018.0 |
| 20260505023551 | 21 | 119 | 8.0 | 12.9 | 0.00 | 0.00 | 0.00 | 100 | 1018.0 |
| 20260505023457 | 22 | 102 | 6.4 | 11.3 | 0.00 | 0.00 | 0.00 | 100 | 1018.0 |
| 20260505023051 | 22 | 102 | 6.4 | 11.3 | 0.00 | 0.00 | 0.00 | 100 | 1018.0 |
| 20260505022551 | 21 | 105 | 3.2 | 9.7 | 0.00 | 0.00 | 0.00 | 100 | 1018.0 |
| 20260505022051 | 22 | 56 | 4.8 | 12.9 | 0.00 | 0.00 | 0.00 | 100 | 1018.0 |
| 20260505022008 | 22 | 67 | 6.4 | 11.3 | 0.00 | 0.00 | 0.00 | 100 | 1017.9 |
| 20260505021551 | 22 | 67 | 6.4 | 11.3 | 0.00 | 0.00 | 0.00 | 100 | 1017.9 |
| 20260505021051 | 22 | 98 | 6.4 | 11.3 | 0.00 | 0.00 | 0.00 | 100 | 1017.9 |
| 20260505021008 | 22 | 66 | 8.0 | 12.9 | 0.00 | 0.00 | 0.00 | 100 | 1017.9 |
| 20260505020551 | 22 | 66 | 8.0 | 12.9 | 0.00 | 0.00 | 0.00 | 100 | 1017.9 |